TimeEST,TemperatureF,Dew PointF,Humidity,Sea Level PressureIn,VisibilityMPH,Wind Direction,Wind SpeedMPH,Gust SpeedMPH,PrecipitationIn,Events,Conditions,WindDirDegrees,DateUTC
12:53 AM,28.9,21.0,72,30.09,10.0,Calm,Calm,-,N/A,,Overcast,0,2013-03-05 05:53:00
2:53 AM,30.9,19.9,64,30.07,10.0,NE,3.5,-,N/A,,Overcast,50,2013-03-05 07:53:00
3:53 AM,30.0,23.0,75,30.06,10.0,Calm,Calm,-,N/A,,Overcast,0,2013-03-05 08:53:00
4:53 AM,30.9,21.0,67,30.05,10.0,NE,3.5,-,N/A,,Overcast,50,2013-03-05 09:53:00
5:53 AM,30.9,19.9,64,30.05,10.0,ENE,4.6,-,N/A,,Overcast,60,2013-03-05 10:53:00
8:53 AM,30.9,21.0,67,30.01,10.0,ESE,6.9,-,N/A,,Overcast,110,2013-03-05 13:53:00
9:53 AM,33.1,21.0,61,30.02,10.0,East,4.6,-,N/A,,Overcast,90,2013-03-05 14:53:00
10:53 AM,34.0,21.0,59,29.98,10.0,ENE,8.1,-,N/A,,Overcast,70,2013-03-05 15:53:00
11:53 AM,37.0,21.9,54,29.96,10.0,ESE,6.9,-,0.00,,Mostly Cloudy,110,2013-03-05 16:53:00
12:53 PM,39.9,23.0,51,29.91,10.0,East,9.2,-,N/A,,Partly Cloudy,80,2013-03-05 17:53:00
1:53 PM,42.1,25.0,51,29.83,10.0,East,9.2,-,N/A,,Mostly Cloudy,80,2013-03-05 18:53:00
2:53 PM,44.1,23.0,43,29.80,10.0,ENE,6.9,-,N/A,,Overcast,70,2013-03-05 19:53:00
3:53 PM,44.1,24.1,45,29.76,10.0,East,6.9,-,N/A,,Overcast,100,2013-03-05 20:53:00
4:53 PM,44.1,25.0,47,29.72,10.0,East,4.6,-,N/A,,Overcast,80,2013-03-05 21:53:00
5:53 PM,44.1,23.0,43,29.68,10.0,ENE,6.9,-,N/A,,Overcast,70,2013-03-05 22:53:00
6:53 PM,43.0,21.0,42,29.65,10.0,ENE,11.5,-,N/A,,Overcast,70,2013-03-05 23:53:00
7:53 PM,42.1,19.9,41,29.61,10.0,ENE,12.7,19.6,N/A,,Overcast,70,2013-03-06 00:53:00
8:53 PM,42.1,19.9,41,29.58,10.0,East,12.7,-,0.00,Rain,Light Rain,80,2013-03-06 01:53:00
9:53 PM,39.9,24.1,53,29.58,10.0,East,11.5,20.7,0.00,,Overcast,80,2013-03-06 02:53:00
10:26 PM,35.6,30.2,81,29.55,3.0,ENE,10.4,-,0.04,Snow,Light Snow,60,2013-03-06 03:26:00
10:53 PM,34.0,30.9,89,29.56,6.0,NE,12.7,-,0.10,Rain,Light Rain,50,2013-03-06 03:53:00
11:09 PM,33.8,32.0,93,29.54,7.0,ENE,11.5,-,0.02,Rain,Light Rain,60,2013-03-06 04:09:00
11:32 PM,33.8,32.0,93,29.54,7.0,ENE,11.5,-,0.05,Rain,Light Rain,70,2013-03-06 04:32:00
11:43 PM,33.8,32.0,93,29.54,4.0,ENE,10.4,-,0.07,Snow,Light Snow,70,2013-03-06 04:43:00
11:53 PM,34.0,32.0,92,29.55,2.5,ENE,11.5,19.6,0.09,Snow,Light Snow,70,2013-03-06 04:53:00